Weather History for KHUT - October, 2013

Change the Weather History Date:

Thursday, October 31, 2013

  Actual Average Record
Temperature  
Mean Temperature 54 °F -  
Max Temperature 66 °F 59 °F 79 °F (2008)
Min Temperature 42 °F 37 °F 27 °F (2006)
Degree Days  
Heating Degree Days 11    
Growing Degree Days 4 (Base 50)    
Moisture  
Dew Point 43 °F    
Average Humidity 78    
Maximum Humidity 93    
Minimum Humidity 31    
Precipitation  
Precipitation 0.21 in - - ()
Sea Level Pressure  
Sea Level Pressure 29.67 in    
Wind  
Wind Speed 9 mph (North)    
Max Wind Speed 22 mph    
Max Gust Speed 31 mph    
Visibility 8 miles    
Events Rain , Thunderstorm    
Averages and records for this station are not official NWS values.
T = Trace of Precipitation, MM = Missing Value Source: NWS Daily Summary

Daily Weather History Graph

Daily Weather History Graph

Search for Another Location

Airport or City:

Trip Planner

Search our weather history database for the weather conditions in past years. The results will help you decide how hot, cold, wet, or windy it might be!

Date:

Astronomy

Oct. 31, 2013 Rise Set
Actual Time 7:56 AM CDT 6:33 PM CDT
Civil Twilight 7:29 AM CDT 7:00 PM CDT
Nautical Twilight 6:58 AM CDT 7:31 PM CDT
Astronomical Twilight 6:27 AM CDT 8:02 PM CDT
Moon 4:50 AM CDT (10/31) 4:49 PM CDT (10/31)
Length of Visible Light 11h 31m
Length of Day
10h 36m
Waning Crescent, 10% of the Moon is Illuminated
Oct 31
Waning Crescent
Nov 3
New
Nov 9
First Quarter
Nov 17
Full
Nov 25
Last Quarter

Hourly Weather History & Observations

Time (CDT) Temp. Windchill Dew Point Humidity Pressure Visibility Wind Dir Wind Speed Gust Speed Precip Events Conditions
12:52 AM 50.0 °F - 46.0 °F 86% 29.72 in 10.0 mi North 4.6 mph - N/A   Overcast
1:52 AM 50.0 °F - 46.0 °F 86% 29.69 in 10.0 mi NNE 6.9 mph - 0.00 in Rain Light Rain
2:34 AM 48.2 °F - 46.4 °F 93% 29.73 in 6.0 mi North 5.8 mph - N/A Rain Rain
2:45 AM 48.2 °F - 46.4 °F 93% 29.72 in 7.0 mi NNE 9.2 mph - N/A Rain Light Rain
2:52 AM 48.9 °F - 46.0 °F 90% 29.70 in 8.0 mi NNE 6.9 mph - N/A Rain Light Rain
3:08 AM 48.2 °F - 46.4 °F 93% 29.70 in 7.0 mi ENE 6.9 mph - 0.00 in Rain Light Rain
3:31 AM 48.2 °F - 46.4 °F 93% 29.68 in 7.0 mi ENE 10.4 mph - 0.01 in Rain Light Rain
3:52 AM 48.0 °F - 45.0 °F 89% 29.64 in 8.0 mi ENE 10.4 mph 20.7 mph 0.01 in Rain Light Rain
4:07 AM 48.2 °F - 44.6 °F 87% 29.67 in 7.0 mi NE 10.4 mph - 0.00 in Rain Light Rain
4:20 AM 48.2 °F - 46.4 °F 93% 29.68 in 8.0 mi North 6.9 mph - 0.00 in Rain , Thunderstorm Light Rain
4:35 AM 48.2 °F - 46.4 °F 93% 29.67 in 7.0 mi North 5.8 mph - 0.00 in Rain Light Rain
4:52 AM 48.0 °F - 46.0 °F 93% 29.63 in 7.0 mi NE 5.8 mph - 0.00 in Rain Light Rain
5:07 AM 48.2 °F - 46.4 °F 93% 29.63 in 9.0 mi NE 10.4 mph - 0.00 in Rain Light Rain
5:35 AM 48.2 °F - 46.4 °F 93% 29.70 in 7.0 mi NW 12.7 mph - 0.00 in Rain Light Rain
5:52 AM 48.0 °F - 46.0 °F 93% 29.62 in 2.0 mi North 17.3 mph 21.9 mph 0.11 in Rain Heavy Rain
5:57 AM 48.2 °F - 44.6 °F 87% 29.63 in 3.0 mi North 17.3 mph 24.2 mph 0.01 in Rain Heavy Rain
6:13 AM 48.2 °F - 44.6 °F 87% 29.66 in 10.0 mi NNW 12.7 mph - 0.01 in Rain Light Rain
6:20 AM 48.2 °F - 44.6 °F 87% 29.67 in 10.0 mi North 13.8 mph 18.4 mph 0.01 in   Overcast
6:52 AM 46.9 °F - 44.1 °F 90% 29.63 in 10.0 mi North 11.5 mph - 0.01 in   Overcast
7:22 AM 46.4 °F 40.1 °F 44.6 °F 93% 29.72 in 7.0 mi WNW 15.0 mph 25.3 mph 0.01 in Rain Light Rain
7:34 AM 46.4 °F 41.5 °F 42.8 °F 87% 29.69 in 3.0 mi North 10.4 mph - 0.05 in Rain Heavy Rain
7:52 AM 46.0 °F 40.6 °F 42.1 °F 86% 29.65 in 6.0 mi North 11.5 mph 23.0 mph 0.08 in Rain Light Rain
8:52 AM 46.0 °F 41.9 °F 43.0 °F 89% 29.66 in 8.0 mi North 8.1 mph - 0.00 in   Mostly Cloudy
9:52 AM 46.9 °F - 43.0 °F 86% 29.69 in 9.0 mi North 8.1 mph - 0.00 in   Overcast
10:52 AM 50.0 °F - 45.0 °F 83% 29.67 in 9.0 mi NNW 5.8 mph - N/A   Partly Cloudy
11:52 AM 55.9 °F - 46.0 °F 69% 29.66 in 10.0 mi NNW 12.7 mph 19.6 mph N/A   Partly Cloudy
12:52 PM 61.0 °F - 43.0 °F 52% 29.65 in 10.0 mi NNW 15.0 mph - N/A   Partly Cloudy
1:52 PM 62.1 °F - 42.1 °F 48% 29.64 in 10.0 mi NW 15.0 mph 23.0 mph N/A   Clear
2:52 PM 64.0 °F - 39.9 °F 41% 29.62 in 10.0 mi NW 17.3 mph - N/A   Clear
3:52 PM 64.9 °F - 36.0 °F 34% 29.62 in 10.0 mi NW 21.9 mph 31.1 mph N/A   Clear
4:52 PM 64.0 °F - 33.1 °F 31% 29.65 in 10.0 mi NW 20.7 mph 29.9 mph N/A   Clear
5:52 PM 62.1 °F - 34.0 °F 35% 29.66 in 10.0 mi WNW 12.7 mph - N/A   Clear
6:52 PM 55.9 °F - 35.1 °F 45% 29.65 in 10.0 mi Calm Calm - N/A   Clear
7:52 PM 50.0 °F - 37.9 °F 63% 29.69 in 10.0 mi SW 5.8 mph - N/A   Clear
8:52 PM 46.0 °F 44.8 °F 37.9 °F 73% 29.69 in 10.0 mi NW 3.5 mph - N/A   Clear
9:52 PM 45.0 °F 42.6 °F 37.9 °F 76% 29.72 in 10.0 mi NW 4.6 mph - N/A   Clear
10:52 PM 44.1 °F 42.5 °F 37.0 °F 76% 29.73 in 10.0 mi WNW 3.5 mph - N/A   Clear
11:52 PM 42.1 °F 37.7 °F 36.0 °F 79% 29.75 in 10.0 mi WNW 6.9 mph - N/A   Clear